Location: Beau Repaire
(50.6144°N, 4.0551°E)
Time: 08:35:03
(UTC+00:00)

Cosmos 841 Rocket - Pass Details

Date: 15 May 2026
Orbit: 741 x 767 km, 74.0° (Epoch: 6 June)

Event Time Altitude Azimuth Distance (km) Brightness Sun altitude
Exits shadow 23:27:23 31° 223° (SW) 1,321 4.3 -20.3°
Maximum altitude 23:29:52 67° 297° (WNW) 829 3.7 -20.3°
Drops below altitude 10° 23:35:06 10° 20° (NNE) 2,314 7.0 -20.3°
Sets 23:37:31 0° 23° (NNE) 3,247 7.9 -20.3°
